[TLELIST] Archives

 

[list_settings.list_name] Current TLEs

September 16th 2011 PST

HST 1 20580U 90037B 11258.12105077 .00001691 00000-0 11502-3 0 8352 2 20580 028.4708 148.9114 0003090 356.9216 003.1378 15.01503895973185 ISS (ZARYA) 1 25544U 98067A 11259.48066339 .00018724 00000-0 22239-3 0 755 2 25544 051.6401 061.2062 0011524 196.6877 261.4165 15.61143972735169 CXO 1 25867U 99040B 11258.87500000 -.00000117 00000-0 00000+0 0 6443 2 25867 070.0838 025.4027 8673818 277.1107 355.6044 00.37803498 8111 ____________________________________________________________________ These 2-Line ...Continue Reading

[list_settings.list_name] Current TLEs

September 15th 2011 PST

HST 1 20580U 90037B 11258.12105077 .00001691 00000-0 11502-3 0 8352 2 20580 028.4708 148.9114 0003090 356.9216 003.1378 15.01503895973185 ISS (ZARYA) 1 25544U 98067A 11258.38939976 .00017922 00000-0 21355-3 0 677 2 25544 051.6386 066.7117 0010879 196.2429 244.8198 15.61103962734999 CXO 1 25867U 99040B 11258.87500000 -.00000117 00000-0 00000+0 0 6443 2 25867 070.0838 025.4027 8673818 277.1107 355.6044 00.37803498 8111 ____________________________________________________________________ These 2-Line ...Continue Reading

[list_settings.list_name] Current TLEs

September 14th 2011 PST

HST 1 20580U 90037B 11256.19344204 .00001583 00000-0 10683-3 0 8342 2 20580 028.4694 161.5053 0003204 336.5620 023.4864 15.01498402972891 ISS (ZARYA) 1 25544U 98067A 11257.36303454 .00033732 00000-0 39604-3 0 606 2 25544 051.6348 071.8819 0011181 189.7580 239.3992 15.61076969734835 CXO 1 25867U 99040B 11258.87500000 -.00000117 00000-0 00000+0 0 6443 2 25867 070.0838 025.4027 8673818 277.1107 355.6044 00.37803498 8111 ____________________________________________________________________ These 2-Line ...Continue Reading

[list_settings.list_name] Current TLEs

September 13th 2011 PST

HST 1 20580U 90037B 11256.19344204 .00001583 00000-0 10683-3 0 8342 2 20580 028.4694 161.5053 0003204 336.5620 023.4864 15.01498402972891 ISS (ZARYA) 1 25544U 98067A 11256.33743193 .00028255 00000-0 33350-3 0 549 2 25544 051.6381 077.0462 0011406 184.4084 237.2627 15.61033054734677 CXO 1 25867U 99040B 11256.25000000 -.00000121 00000-0 00000+0 0 6432 2 25867 070.0631 025.5908 8675189 277.1001 358.2604 00.37807222 8106 ____________________________________________________________________ These 2-Line ...Continue Reading

[list_settings.list_name] Current TLEs

September 12th 2011 PST

HST 1 20580U 90037B 11254.13288447 .00001346 00000-0 88989-4 0 8331 2 20580 028.4691 174.9659 0002980 311.5171 048.5094 15.01492261972588 ISS (ZARYA) 1 25544U 98067A 11255.29995370 .00036588 00000-0 42999-3 0 489 2 25544 051.6389 082.2700 0011384 180.8629 166.7157 15.61008384734502 CXO 1 25867U 99040B 11256.25000000 -.00000121 00000-0 00000+0 0 6432 2 25867 070.0631 025.5908 8675189 277.1001 358.2604 00.37807222 8106 ____________________________________________________________________ These 2-Line ...Continue Reading

[list_settings.list_name] Current TLEs

September 11th 2011 PST

HST 1 20580U 90037B 11254.13288447 .00001346 00000-0 88989-4 0 8331 2 20580 028.4691 174.9659 0002980 311.5171 048.5094 15.01492261972588 ISS (ZARYA) 1 25544U 98067A 11254.16865748 .00037614 00000-0 44254-3 0 408 2 25544 051.6400 087.9700 0011687 177.0699 288.9596 15.60962225734336 CXO 1 25867U 99040B 11256.25000000 -.00000121 00000-0 00000+0 0 6432 2 25867 070.0631 025.5908 8675189 277.1001 358.2604 00.37807222 8106 ____________________________________________________________________ These 2-Line ...Continue Reading

[list_settings.list_name] Current TLEs

September 10th 2011 PST

HST 1 20580U 90037B 11252.27173373 .00001115 00000-0 71536-4 0 8328 2 20580 028.4686 187.1236 0003021 286.6404 073.3934 15.01488603972301 ISS (ZARYA) 1 25544U 98067A 11253.31555556 .00008506 00000-0 10548-3 0 369 2 25544 051.6401 092.2626 0012096 172.6772 176.2629 15.60903995734190 CXO 1 25867U 99040B 11253.58333333 -.00000116 00000-0 00000+0 0 6426 2 25867 070.0414 025.7771 8674838 277.0772 355.2958 00.37805062 8096 ____________________________________________________________________ These 2-Line ...Continue Reading

[list_settings.list_name] Current TLEs

September 9th 2011 PST

HST 1 20580U 90037B 11249.21412307 .00001252 00000-0 81880-4 0 8315 2 20580 028.4685 207.1079 0003124 260.3951 099.6471 15.01483107971847 ISS (ZARYA) 1 25544U 98067A 11252.06154707 .00045621 00000-0 53606-3 0 308 2 25544 051.6393 098.5812 0011908 168.6819 329.0205 15.60902837734006 CXO 1 25867U 99040B 11253.58333333 -.00000116 00000-0 00000+0 0 6426 2 25867 070.0414 025.7771 8674838 277.0772 355.2958 00.37805062 8096 ____________________________________________________________________ These 2-Line ...Continue Reading

[list_settings.list_name] Current TLEs

September 7th 2011 PST

HST 1 20580U 90037B 11249.21412307 .00001252 00000-0 81880-4 0 8315 2 20580 028.4685 207.1079 0003124 260.3951 099.6471 15.01483107971847 ISS (ZARYA) 1 25544U 98067A 11250.07981422 .00011988 00000-0 14626-3 0 239 2 25544 051.6397 108.5565 0012540 162.4471 352.2691 15.60854566733692 CXO 1 25867U 99040B 11250.95833333 -.00000239 00000-0 00000+0 0 6414 2 25867 070.0232 025.9224 8673390 277.0633 358.0179 00.37802021 8084 ____________________________________________________________________ These 2-Line ...Continue Reading

[list_settings.list_name] Current TLEs

September 6th 2011 PST

HST 1 20580U 90037B 11249.21412307 .00001252 00000-0 81880-4 0 8315 2 20580 028.4685 207.1079 0003124 260.3951 099.6471 15.01483107971847 ISS (ZARYA) 1 25544U 98067A 11249.48812493 .00010799 00000-0 13249-3 0 197 2 25544 051.6404 111.5383 0012448 159.6513 268.1176 15.60837989733609 CXO 1 25867U 99040B 11250.95833333 -.00000239 00000-0 00000+0 0 6414 2 25867 070.0232 025.9224 8673390 277.0633 358.0179 00.37802021 8084 ____________________________________________________________________ These 2-Line ...Continue Reading
  • This mailing list is a public mailing list - anyone may join or leave, at any time.
  • This mailing list is announce-only.

International Space Station (ISS) / Hubble Space Telescope (HST) / Chandra X-Ray Observatory Orbital Data via EMAIL

Privacy Policy:

Private list